GW5901 Weather Reports


time (UTC)temp
C
wind
direction
speed
KPH
gust
KPH
rain 1hr
cm
rain 24hr
cm
rain mn
cm
humidity
%
barometer
mb
20260510094937 18 38 0.0 0.0 0.00 0.00 0.00 83 1015.5
20260510094432 18 38 0.0 0.0 0.00 0.00 0.00 83 1015.2
20260510093928 18 39 0.0 0.0 0.00 0.00 0.00 83 1015.3
20260510093424 18 36 1.6 1.6 0.00 0.00 0.00 83 1014.9
20260510092921 18 65 0.0 0.0 0.00 0.00 0.00 82 1014.9
20260510092419 19 65 0.0 0.0 0.00 0.00 0.00 82 1015.1
20260510091918 18 65 0.0 0.0 0.00 0.00 0.00 82 1015.2
20260510091415 18 65 0.0 0.0 0.00 0.00 0.00 82 1015.3
20260510090912 18 65 0.0 0.0 0.00 0.00 0.00 82 1015.2
20260510090409 18 65 0.0 0.0 0.00 0.00 0.00 81 1015.3
20260510085905 18 65 0.0 0.0 0.00 0.00 0.00 80 1015.4
20260510085359 18 65 0.0 0.0 0.00 0.00 0.00 80 1015.2
20260510084855 18 65 0.0 0.0 0.00 0.00 0.00 80 1015.1
20260510084353 18 65 0.0 0.0 0.00 0.00 0.00 80 1015.1
20260510083849 18 65 0.0 0.0 0.00 0.00 0.00 79 1015.0
20260510083346 18 65 0.0 0.0 0.00 0.00 0.00 79 1015.1
20260510082841 18 65 0.0 0.0 0.00 0.00 0.00 79 1015.0
20260510082339 18 65 0.0 0.0 0.00 0.00 0.00 78 1015.0
20260510081837 18 65 0.0 0.0 0.00 0.00 0.00 78 1015.1
20260510081334 18 65 0.0 0.0 0.00 0.00 0.00 78 1015.2
20260510080830 18 65 0.0 0.0 0.00 0.00 0.00 77 1015.1
20260510080325 18 65 0.0 0.0 0.00 0.00 0.00 77 1014.9
20260510075822 18 65 0.0 0.0 0.00 0.00 0.00 76 1014.9
20260510075320 18 65 0.0 0.0 0.00 0.00 0.00 76 1014.8
20260510074816 18 65 0.0 0.0 0.00 0.00 0.00 76 1015.0
20260510074314 18 65 0.0 0.0 0.00 0.00 0.00 76 1015.1
20260510073809 18 65 0.0 0.0 0.00 0.00 0.00 77 1015.2
20260510073305 18 65 0.0 0.0 0.00 0.00 0.00 75 1014.9
20260510072801 18 65 0.0 0.0 0.00 0.00 0.00 74 1014.9
20260510072258 18 65 0.0 0.0 0.00 0.00 0.00 75 1015.0
20260510071754 18 65 0.0 0.0 0.00 0.00 0.00 74 1014.9
20260510071251 18 65 0.0 0.0 0.00 0.00 0.00 74 1014.9
20260510070750 18 65 0.0 0.0 0.00 0.00 0.00 74 1014.8
20260510070247 18 65 0.0 0.0 0.00 0.00 0.00 74 1015.1
20260510065746 18 65 0.0 0.0 0.00 0.00 0.00 72 1014.9
20260510065243 18 65 0.0 0.0 0.00 0.00 0.00 72 1015.0
20260510064740 18 65 0.0 0.0 0.00 0.00 0.00 71 1015.0
20260510064238 18 65 0.0 0.0 0.00 0.00 0.00 71 1015.0
20260510063734 18 65 0.0 0.0 0.00 0.00 0.00 70 1015.4
20260510063230 18 65 0.0 0.0 0.00 0.00 0.00 72 1015.2
20260510062727 18 65 0.0 0.0 0.00 0.00 0.00 69 1015.3
20260510062223 18 65 0.0 0.0 0.00 0.00 0.00 68 1015.3
20260510061718 18 65 0.0 0.0 0.00 0.00 0.00 67 1015.3
20260510061216 18 65 0.0 0.0 0.00 0.00 0.00 67 1015.2
20260510060712 18 65 0.0 0.0 0.00 0.00 0.00 67 1015.0
20260510060208 18 65 0.0 0.0 0.00 0.00 0.00 66 1015.1
20260510055705 18 64 0.0 0.0 0.00 0.00 0.00 67 1015.2
20260510055203 18 64 0.0 0.0 0.00 0.00 0.00 66 1015.1
20260510054658 17 64 0.0 0.0 0.00 0.00 0.00 67 1015.2
20260510054154 17 64 0.0 0.0 0.00 0.00 0.00 66 1015.3
20260510053654 17 64 0.0 0.0 0.00 0.00 0.00 65 1015.4
20260510053151 17 64 0.0 0.0 0.00 0.00 0.00 66 1015.2
20260510052646 17 64 0.0 0.0 0.00 0.00 0.00 66 1015.3
20260510052143 17 64 0.0 0.0 0.00 0.00 0.00 67 1015.3
20260510051638 16 64 0.0 0.0 0.00 0.00 0.00 68 1015.3
20260510051135 17 64 0.0 0.0 0.00 0.00 0.00 66 1015.3
20260510050632 17 64 0.0 0.0 0.00 0.00 0.00 66 1015.3
20260510050130 17 64 0.0 0.0 0.00 0.00 0.00 65 1015.2
20260510045626 17 64 0.0 0.0 0.00 0.00 0.00 61 1015.2
20260510045123 17 64 0.0 0.0 0.00 0.00 0.00 62 1015.1
20260510044619 17 64 0.0 0.0 0.00 0.00 0.00 63 1014.8
20260510044117 17 64 0.0 0.0 0.00 0.00 0.00 62 1015.1
20260510043612 17 64 0.0 0.0 0.00 0.00 0.00 59 1015.0
20260510043108 17 64 0.0 0.0 0.00 0.00 0.00 61 1015.0
20260510042607 17 64 0.0 0.0 0.00 0.00 0.00 61 1014.9
20260510042102 17 64 0.0 0.0 0.00 0.00 0.00 63 1014.8
20260510041600 17 64 0.0 0.0 0.00 0.00 0.00 63 1014.6
20260510041057 17 64 0.0 0.0 0.00 0.00 0.00 62 1014.7
20260510040554 17 64 0.0 0.0 0.00 0.00 0.00 63 1014.7
20260510040049 18 64 0.0 0.0 0.00 0.00 0.00 61 1014.6
20260510035546 18 64 0.0 0.0 0.00 0.00 0.00 62 1014.7
20260510035045 18 64 0.0 0.0 0.00 0.00 0.00 62 1014.5
20260510034544 18 64 0.0 0.0 0.00 0.00 0.00 62 1014.4
20260510034041 18 64 0.0 0.0 0.00 0.00 0.00 64 1014.3
20260510033536 18 64 0.0 0.0 0.00 0.00 0.00 57 1014.4
20260510033035 18 64 0.0 0.0 0.00 0.00 0.00 62 1014.2
20260510032531 18 64 0.0 0.0 0.00 0.00 0.00 62 1014.0
20260510032026 18 64 0.0 0.0 0.00 0.00 0.00 61 1014.4
20260510031521 18 64 0.0 0.0 0.00 0.00 0.00 59 1014.1
20260510031018 18 64 0.0 0.0 0.00 0.00 0.00 58 1014.1
20260510030513 18 64 0.0 0.0 0.00 0.00 0.00 62 1014.2
20260510030011 18 64 0.0 0.0 0.00 0.00 0.00 60 1014.0
20260510025508 18 64 0.0 0.0 0.00 0.00 0.00 60 1014.0
20260510025006 18 64 0.0 0.0 0.00 0.00 0.00 62 1013.6
20260510024502 18 64 0.0 0.0 0.00 0.00 0.00 63 1013.5
20260510023958 18 64 0.0 0.0 0.00 0.00 0.00 62 1013.3
20260510023454 18 64 0.0 0.0 0.00 0.00 0.00 60 1013.2
20260510022951 18 64 0.0 0.0 0.00 0.00 0.00 60 1013.1
20260510022450 18 64 0.0 0.0 0.00 0.00 0.00 58 1013.0
20260510021949 19 64 0.0 0.0 0.00 0.00 0.00 58 1013.3
20260510021448 19 64 0.0 0.0 0.00 0.00 0.00 59 1013.1
20260510020945 19 64 0.0 0.0 0.00 0.00 0.00 57 1012.9
20260510020444 20 64 0.0 0.0 0.00 0.00 0.00 59 1012.9
20260510015940 20 64 0.0 0.0 0.00 0.00 0.00 56 1012.8
20260510015436 20 64 0.0 0.0 0.00 0.00 0.00 59 1012.5
20260510014931 20 64 0.0 0.0 0.00 0.00 0.00 56 1012.7
20260510014429 20 64 0.0 0.0 0.00 0.00 0.00 54 1012.5
20260510013926 20 64 0.0 0.0 0.00 0.00 0.00 52 1012.6
20260510013420 21 64 0.0 0.0 0.00 0.00 0.00 53 1012.6
20260510012916 21 64 0.0 0.0 0.00 0.00 0.00 51 1012.3
20260510012411 21 64 0.0 0.0 0.00 0.00 0.00 49 1012.3
20260510011906 21 64 0.0 0.0 0.00 0.00 0.00 50 1012.3
20260510011401 21 64 0.0 0.0 0.00 0.00 0.00 48 1012.3
20260510010858 21 64 0.0 0.0 0.00 0.00 0.00 50 1012.1
20260510010355 21 64 0.0 0.0 0.00 0.00 0.00 49 1012.2
20260510005852 22 64 0.0 0.0 0.00 0.00 0.00 50 1012.1
20260510005348 22 63 0.0 0.0 0.00 0.00 0.00 50 1012.0
20260510004846 22 63 0.0 0.0 0.00 0.00 0.00 50 1012.1
20260510004343 22 63 0.0 0.0 0.00 0.00 0.00 52 1012.0
20260510003841 22 63 0.0 0.0 0.00 0.00 0.00 51 1011.9
20260510003337 22 63 0.0 0.0 0.00 0.00 0.00 51 1011.9
20260510002836 22 63 0.0 0.0 0.00 0.00 0.00 52 1012.1
20260510002333 23 63 0.0 0.0 0.00 0.00 0.00 53 1012.1
20260510001830 23 63 0.0 0.0 0.00 0.00 0.00 50 1011.9
20260510001328 23 63 0.0 0.0 0.00 0.00 0.00 54 1012.2
20260510000824 23 63 0.0 0.0 0.00 0.00 0.00 49 1012.0
20260510000322 23 63 0.0 0.0 0.00 0.00 0.00 48 1011.8
20260509235819 23 63 0.0 0.0 0.00 0.00 0.00 48 1011.7
20260509235315 24 63 0.0 0.0 0.00 0.00 0.00 46 1011.8
20260509234811 24 63 0.0 0.0 0.00 0.00 0.00 45 1011.9
20260509234308 24 63 0.0 0.0 0.00 0.00 0.00 47 1012.0
20260509233806 24 59 0.0 0.0 0.00 0.00 0.00 46 1011.9
20260509233303 25 59 0.0 0.0 0.00 0.00 0.00 45 1011.8
20260509232759 25 59 0.0 0.0 0.00 0.00 0.00 45 1012.0
20260509232257 25 59 0.0 1.6 0.00 0.00 0.00 46 1011.8
20260509231753 25 67 0.0 0.0 0.00 0.00 0.00 43 1012.0
20260509231250 25 48 1.6 1.6 0.00 0.00 0.00 44 1011.9
20260509230748 25 55 0.0 0.0 0.00 0.00 0.00 50 1011.8
20260509230244 25 54 0.0 0.0 0.00 0.00 0.00 50 1011.8
20260509225739 25 54 0.0 0.0 0.00 0.00 0.00 42 1011.9
20260509225236 25 54 0.0 0.0 0.00 0.00 0.00 42 1011.7
20260509224731 25 54 0.0 0.0 0.00 0.00 0.00 42 1011.7
20260509224229 25 55 0.0 0.0 0.00 0.00 0.00 40 1011.8
20260509223725 26 44 1.6 3.2 0.00 0.00 0.00 46 1011.8
20260509223223 26 56 0.0 0.0 0.00 0.00 0.00 39 1011.8
20260509222719 26 73 0.0 0.0 0.00 0.00 0.00 37 1011.6
20260509222215 26 39 0.0 1.6 0.00 0.00 0.00 42 1011.7
20260509221711 26 42 0.0 0.0 0.00 0.00 0.00 38 1011.6
20260509221207 26 59 0.0 1.6 0.00 0.00 0.00 45 1011.8
20260509220703 26 37 0.0 0.0 0.00 0.00 0.00 41 1012.1
20260509220159 26 59 0.0 0.0 0.00 0.00 0.00 40 1011.9
20260509215655 26 53 0.0 0.0 0.00 0.00 0.00 36 1011.9
20260509215152 26 57 0.0 0.0 0.00 0.00 0.00 34 1012.0
20260509214649 26 74 4.8 4.8 0.00 0.00 0.00 36 1011.7
20260509214146 26 13 1.6 1.6 0.00 0.00 0.00 36 1012.1
20260509213643 26 2 1.6 3.2 0.00 0.00 0.00 37 1012.0
20260509213138 26 40 0.0 0.0 0.00 0.00 0.00 39 1012.0
20260509212636 26 32 0.0 0.0 0.00 0.00 0.00 36 1012.0
20260509212133 26 21 1.6 1.6 0.00 0.00 0.00 33 1012.2
20260509211629 26 27 0.0 0.0 0.00 0.00 0.00 35 1011.8
20260509211125 26 23 1.6 1.6 0.00 0.00 0.00 33 1012.0
20260509210623 26 226 4.8 4.8 0.00 0.00 0.00 36 1012.1
20260509210120 26 112 3.2 3.2 0.00 0.00 0.00 35 1012.0
20260509205614 26 73 0.0 1.6 0.00 0.00 0.00 37 1012.0
20260509205109 26 77 1.6 1.6 0.00 0.00 0.00 34 1012.0
20260509204605 26 72 1.6 1.6 0.00 0.00 0.00 34 1012.2
20260509204102 26 59 1.6 1.6 0.00 0.00 0.00 34 1012.2
20260509203558 27 38 1.6 1.6 0.00 0.00 0.00 36 1012.2
20260509203057 27 34 0.0 0.0 0.00 0.00 0.00 34 1012.1
20260509202556 27 78 1.6 1.6 0.00 0.00 0.00 34 1012.3
20260509202052 27 53 0.0 1.6 0.00 0.00 0.00 31 1012.4
20260509201547 27 33 0.0 0.0 0.00 0.00 0.00 34 1012.5
20260509201045 27 349 3.2 3.2 0.00 0.00 0.00 32 1012.5
20260509200544 27 52 0.0 0.0 0.00 0.00 0.00 34 1012.5
20260509200042 27 358 1.6 1.6 0.00 0.00 0.00 35 1012.6
20260509195537 27 12 1.6 1.6 0.00 0.00 0.00 35 1012.7
20260509195037 27 9 0.0 1.6 0.00 0.00 0.00 31 1012.7
20260509194532 27 34 0.0 1.6 0.00 0.00 0.00 30 1012.7
20260509194030 27 18 0.0 0.0 0.00 0.00 0.00 32 1012.9
20260509193530 28 19 0.0 1.6 0.00 0.00 0.00 35 1012.8
20260509193027 27 37 0.0 0.0 0.00 0.00 0.00 35 1012.8
20260509192524 27 16 0.0 0.0 0.00 0.00 0.00 33 1012.8
20260509192019 27 46 0.0 1.6 0.00 0.00 0.00 34 1012.8
20260509191513 28 47 0.0 0.0 0.00 0.00 0.00 32 1013.0
20260509191009 28 328 0.0 0.0 0.00 0.00 0.00 34 1012.9
20260509190506 27 49 1.6 1.6 0.00 0.00 0.00 36 1013.0
20260509190005 28 71 4.8 8.0 0.00 0.00 0.00 36 1012.9
20260509185501 27 59 1.6 1.6 0.00 0.00 0.00 36 1013.1
20260509184958 27 73 1.6 3.2 0.00 0.00 0.00 33 1013.0
20260509184456 26 94 3.2 3.2 0.00 0.00 0.00 38 1013.1
20260509183953 26 93 1.6 3.2 0.00 0.00 0.00 37 1012.9
20260509183452 26 78 1.6 1.6 0.00 0.00 0.00 36 1013.0
20260509182949 26 100 3.2 3.2 0.00 0.00 0.00 37 1013.1
20260509182445 26 85 3.2 3.2 0.00 0.00 0.00 38 1013.1
20260509181943 26 229 3.2 3.2 0.00 0.00 0.00 36 1013.0
20260509181441 28 341 1.6 3.2 0.00 0.00 0.00 35 1013.1
20260509180938 28 32 0.0 0.0 0.00 0.00 0.00 38 1013.0
20260509180434 27 34 1.6 1.6 0.00 0.00 0.00 36 1013.0
20260509175931 27 179 1.6 3.2 0.00 0.00 0.00 36 1012.9
20260509175427 27 38 0.0 0.0 0.00 0.00 0.00 32 1013.0
20260509174923 27 29 0.0 1.6 0.00 0.00 0.00 36 1013.1
20260509174419 26 87 3.2 4.8 0.00 0.00 0.00 32 1013.2
20260509173916 27 25 1.6 1.6 0.00 0.00 0.00 42 1013.3
20260509173415 26 10 1.6 3.2 0.00 0.00 0.00 40 1013.2
20260509172912 26 28 0.0 0.0 0.00 0.00 0.00 40 1013.4
20260509172409 26 32 0.0 0.0 0.00 0.00 0.00 41 1013.3
20260509171904 26 68 3.2 3.2 0.00 0.00 0.00 38 1013.5
20260509171401 26 53 1.6 1.6 0.00 0.00 0.00 43 1013.5
20260509170857 25 69 1.6 1.6 0.00 0.00 0.00 42 1013.5
20260509170353 25 170 4.8 4.8 0.00 0.00 0.00 43 1013.6
20260509165848 25 24 0.0 0.0 0.00 0.00 0.00 47 1013.5
20260509165342 25 25 0.0 0.0 0.00 0.00 0.00 45 1013.7
20260509164839 25 30 1.6 1.6 0.00 0.00 0.00 50 1013.7
20260509164335 25 54 0.0 0.0 0.00 0.00 0.00 51 1013.5
20260509163831 25 339 1.6 1.6 0.00 0.00 0.00 59 1013.7
20260509163328 24 61 0.0 1.6 0.00 0.00 0.00 57 1013.6
20260509162828 23 57 0.0 0.0 0.00 0.00 0.00 56 1013.7
20260509162326 25 62 1.6 1.6 0.00 0.00 0.00 55 1013.6
20260509161822 25 14 1.6 3.2 0.00 0.00 0.00 57 1013.6
20260509161319 25 66 1.6 1.6 0.00 0.00 0.00 57 1013.5
20260509160814 23 24 1.6 1.6 0.00 0.00 0.00 58 1013.5
20260509160310 23 22 0.0 1.6 0.00 0.00 0.00 60 1013.5
20260509155806 22 61 1.6 1.6 0.00 0.00 0.00 61 1013.3
20260509155306 23 97 1.6 3.2 0.00 0.00 0.00 62 1013.6
20260509154759 23 166 4.8 4.8 0.00 0.00 0.00 63 1013.5
20260509154256 23 62 0.0 0.0 0.00 0.00 0.00 64 1013.7
20260509153753 22 31 1.6 1.6 0.00 0.00 0.00 66 1013.8
20260509153248 22 31 1.6 1.6 0.00 0.00 0.00 66 1013.5
20260509152746 22 77 3.2 3.2 0.00 0.00 0.00 69 1013.6
20260509152242 21 75 1.6 1.6 0.00 0.00 0.00 67 1013.7
20260509151739 21 358 1.6 3.2 0.00 0.00 0.00 69 1013.3
20260509151235 21 53 0.0 0.0 0.00 0.00 0.00 69 1013.6
20260509150734 21 56 0.0 0.0 0.00 0.00 0.00 70 1013.4
20260509150232 20 332 1.6 3.2 0.00 0.00 0.00 72 1013.5
20260509145729 21 81 1.6 1.6 0.00 0.00 0.00 72 1013.6
20260509145228 21 29 1.6 1.6 0.00 0.00 0.00 73 1013.3
20260509144725 20 10 1.6 1.6 0.00 0.00 0.00 72 1013.5
20260509144222 20 61 0.0 0.0 0.00 0.00 0.00 74 1013.2
20260509143719 20 24 1.6 3.2 0.00 0.00 0.00 73 1013.2
20260509143217 20 63 1.6 1.6 0.00 0.00 0.00 74 1013.0
20260509142712 20 332 1.6 3.2 0.00 0.00 0.00 75 1013.3
20260509142209 20 348 3.2 3.2 0.00 0.00 0.00 77 1013.4
20260509141704 18 37 0.0 0.0 0.00 0.00 0.00 79 1013.2
20260509141202 18 42 1.6 1.6 0.00 0.00 0.00 80 1013.3
20260509140658 18 117 1.6 3.2 0.00 0.00 0.00 81 1013.3
20260509140156 17 71 1.6 1.6 0.00 0.00 0.00 81 1013.1
20260509135653 17 94 1.6 1.6 0.00 0.00 0.00 82 1013.1
20260509135151 17 70 1.6 1.6 0.00 0.00 0.00 83 1013.1
20260509134647 17 63 0.0 0.0 0.00 0.00 0.00 84 1013.0
20260509134145 16 278 3.2 3.2 0.00 0.00 0.00 84 1013.0
20260509133642 16 355 1.6 1.6 0.00 0.00 0.00 85 1013.0
20260509133139 16 16 1.6 1.6 0.00 0.00 0.00 86 1012.8
20260509132637 16 5 1.6 1.6 0.00 0.00 0.00 87 1013.1
20260509132136 15 7 0.0 1.6 0.00 0.00 0.00 87 1013.0
20260509131631 15 16 1.6 1.6 0.00 0.00 0.00 87 1012.9
20260509131128 15 16 1.6 1.6 0.00 0.00 0.00 88 1012.9
20260509130624 15 54 1.6 1.6 0.00 0.00 0.00 89 1013.0
20260509130121 14 47 1.6 1.6 0.00 0.00 0.00 89 1012.8
20260509125617 14 14 0.0 0.0 0.00 0.00 0.00 90 1012.8
20260509125114 13 14 0.0 0.0 0.00 0.00 0.00 91 1012.8
20260509124611 13 17 0.0 0.0 0.00 0.00 0.00 92 1012.8
20260509124108 13 18 0.0 0.0 0.00 0.00 0.00 92 1012.6
20260509123606 13 18 0.0 0.0 0.00 0.00 0.00 92 1012.7
20260509123102 13 21 0.0 0.0 0.00 0.00 0.00 93 1012.6
20260509122558 13 18 0.0 0.0 0.00 0.00 0.00 93 1012.8
20260509122055 12 20 0.0 0.0 0.00 0.00 0.00 94 1012.6
20260509121552 12 18 0.0 0.0 0.00 0.00 0.00 94 1012.4
20260509121049 12 21 0.0 0.0 0.00 0.00 0.00 95 1012.6
20260509120548 12 352 0.0 0.0 0.00 0.00 0.00 95 1012.4
20260509120046 12 9 0.0 0.0 0.00 0.00 0.00 95 1012.4
20260509115542 12 10 0.0 0.0 0.00 0.00 0.00 96 1012.2
20260509115040 12 10 0.0 0.0 0.00 0.00 0.00 96 1012.3
20260509114538 12 10 0.0 0.0 0.00 0.00 0.00 96 1012.0
20260509114037 12 10 0.0 0.0 0.00 0.00 0.00 96 1012.1
20260509113535 12 10 0.0 0.0 0.00 0.00 0.00 95 1012.0
20260509113032 12 10 0.0 0.0 0.00 0.00 0.00 95 1012.1
20260509112528 12 10 0.0 0.0 0.00 0.00 0.00 95 1012.0
20260509112025 12 10 0.0 0.0 0.00 0.00 0.00 95 1011.8
20260509111522 12 10 0.0 0.0 0.00 0.00 0.00 94 1011.7
20260509111020 12 10 0.0 0.0 0.00 0.00 0.00 94 1011.7
20260509110516 12 10 0.0 0.0 0.00 0.00 0.00 94 1011.7
20260509110013 12 10 0.0 0.0 0.00 0.00 0.00 93 1011.4
20260509105512 12 10 0.0 0.0 0.00 0.00 0.00 93 1011.5
20260509105009 12 10 0.0 0.0 0.00 0.00 0.00 93 1011.7
20260509104505 12 10 0.0 0.0 0.00 0.00 0.00 92 1011.6
20260509104002 12 10 0.0 0.0 0.00 0.00 0.00 92 1011.6
20260509103500 12 11 0.0 0.0 0.00 0.00 0.00 91 1011.6
20260509102958 13 10 0.0 0.0 0.00 0.00 0.00 91 1011.7
20260509102455 13 10 0.0 0.0 0.00 0.00 0.00 90 1011.6
20260509101951 13 11 0.0 0.0 0.00 0.00 0.00 90 1011.7
20260509101448 13 11 1.6 1.6 0.00 0.00 0.00 89 1011.6
20260509100945 13 12 0.0 1.6 0.00 0.00 0.00 89 1011.6
20260509100442 13 12 0.0 1.6 0.00 0.00 0.00 89 1011.6
20260509095939 13 2 1.6 1.6 0.00 0.00 0.00 88 1011.8
20260509095436 13 0 1.6 1.6 0.00 0.00 0.00 88 1011.8